This is the latest recevied weather packets stored in our database for station/object DG6YGE-6. If no packets are shown the sender has not sent any weather packets the latest 10 day(s).
| Time | Temp. | Humidity | Pressure | Rain* | Wind** | Luminosity | Snow |
|---|---|---|---|---|---|---|---|
| 1777185553 | 5° C | 88% | 1023.7 hPa | 0 mm | - | 191 W/m² | - |
| 1777184953 | 4.44° C | 89% | 1023.7 hPa | 0 mm | - | 268 W/m² | - |
| 1777184353 | 4.44° C | 89% | 1023.7 hPa | 0 mm | - | 243 W/m² | - |
| 1777183753 | 3.89° C | 89% | 1023.6 hPa | 0 mm | - | 197 W/m² | - |
| 1777183153 | 3.33° C | 89% | 1023.6 hPa | 0 mm | - | 186 W/m² | - |
| 1777182553 | 3.33° C | 89% | 1023.5 hPa | 0 mm | - | 100 W/m² | - |
| 1777181953 | 3.33° C | 88% | 1023.5 hPa | 0 mm | - | 120 W/m² | - |
| 1777181353 | 2.78° C | 88% | 1023.4 hPa | 0 mm | - | 107 W/m² | - |
| 1777180753 | 2.78° C | 88% | 1023.3 hPa | 0 mm | - | 72 W/m² | - |
| 1777180153 | 2.78° C | 87% | 1023.2 hPa | 0 mm | - | 62 W/m² | - |
| 1777179553 | 2.78° C | 87% | 1023.1 hPa | 0 mm | - | 42 W/m² | - |
| 1777178953 | 2.78° C | 87% | 1023 hPa | 0 mm | - | 29 W/m² | - |
| 1777178353 | 2.78° C | 87% | 1022.9 hPa | 0 mm | - | 19 W/m² | - |
| 1777177753 | 2.78° C | 86% | 1022.7 hPa | 0 mm | - | 12 W/m² | - |
| 1777177153 | 2.78° C | 86% | 1022.7 hPa | 0 mm | - | 8 W/m² | - |
| 1777176553 | 2.78° C | 86% | 1022.4 hPa | 0 mm | - | 4 W/m² | - |
| 1777175953 | 2.78° C | 86% | 1022.3 hPa | 0 mm | - | 0 W/m² | - |
| 1777175353 | 3.33° C | 85% | 1022.3 hPa | 0 mm | - | 0 W/m² | - |
| 1777174753 | 3.33° C | 84% | 1022.2 hPa | 0 mm | - | 0 W/m² | - |
| 1777174153 | 3.33° C | 84% | 1022.2 hPa | 0 mm | - | 0 W/m² | - |
| 1777173552 | 3.89° C | 83% | 1022 hPa | 0 mm | - | 0 W/m² | - |
| 1777172952 | 3.89° C | 85% | 1022 hPa | 0 mm | - | 0 W/m² | - |
| 1777172353 | 3.89° C | 84% | 1021.8 hPa | 0 mm | - | 0 W/m² | - |
| 1777171753 | 4.44° C | 84% | 1021.7 hPa | 0 mm | - | 0 W/m² | - |
| 1777171153 | 4.44° C | 83% | 1021.5 hPa | 0 mm | - | 0 W/m² | - |
* Rain latest hour (hover to see other rain measurements)
** Current wind speed in m/s (hover to see current wind gust speed)